Regional Weather Roundup
Issued by NWS

Home | Current Version | Previous Version | Graphics & Text | Print | Product List | Glossary On
Versions: 1 2 3 4 5 6 7 8 9 10 11 12 13 14 15 16 17 18 19 20 21 22 23 24 25 26 27
000
ASUS45 KCYS 242010
RWRWY

WYOMING REGIONAL WEATHER ROUNDUP
NATIONAL WEATHER SERVICE CHEYENNE WY
100 PM MST TUE JAN 24 2017

NOTE:  "FAIR" INDICATES FEW OR NO CLOUDS BELOW 12,000 FEET
WITH NO SIGNIFICANT WEATHER AND/OR OBSTRUCTIONS TO VISIBILITY.

WYZ001-242100-
YELLOWSTONE NATIONAL PARK

CITY           SKY/WX    TMP DP  RH WIND       PRES   REMARKS
LK YELLOWSTONE   N/A     18   8  65 VRB5      29.66S WCI  11
W YELLOWSTONE  NOT AVBL

$$
WYZ002>013-054>058-071-098>099-242100-
NORTHERN WYOMING

CITY           SKY/WX    TMP DP  RH WIND       PRES   REMARKS
JACKSON        FLURRIES  21  19  93 CALM      29.67S
CODY           PTSUNNY   18  15  88 N9        29.79S WCI   7
GREYBULL       LGT SNOW  24  19  81 NW10      29.79F WCI  14
WORLAND        LGT SNOW  23  20  88 NW13      29.77S FOG     WCI  11
SHERIDAN       LGT SNOW  21  17  84 NW6       29.83S FOG     WCI  13
BUFFALO        LGT SNOW  19  14  81 N8        29.76F WCI   9
GILLETTE       CLOUDY    18  15  88 N16       29.77F FOG     WCI   3
HULETT         LGT SNOW  21  18  86 MISG      29.77F
NEWCASTLE      LGT SNOW  21  18  86 CALM      29.72F VSB 1

$$
WYZ014>020-022>026-101>103-242100-
CENTRAL WYOMING

CITY           SKY/WX    TMP DP  RH WIND       PRES   REMARKS
BIG PINEY      LGT SNOW  17  14  88 S14       29.66S VSB 1   WCI   3
PINEDALE       LGT SNOW  18  14  86 S13       29.66S WCI   4
DUBOIS         NOT AVBL
LANDER         LGT SNOW  19  16  88 CALM      29.73S FOG
RIVERTON       LGT SNOW  18  15  88 S5        29.74F FOG     WCI  11
CASPER         LGT SNOW  16  11  80 N14       29.73F WCI   2
DOUGLAS        LGT SNOW  17  10  74 NW18      29.72S WCI   1

$$
WYZ021-027>030-104>119-242100-
SOUTHERN WYOMING

CITY           SKY/WX    TMP DP  RH WIND       PRES   REMARKS
EVANSTON       CLOUDY    19  14  81 SW17      29.68S WCI   4
ROCK SPRINGS   LGT SNOW  16  11  80 E5        29.69S VSB 3/4 WCI   9
RAWLINS        CLOUDY    14   6  70 N12       29.65S WCI   0
LARAMIE        FAIR      15  10  80 N17       29.54F WCI  -1
CHEYENNE       PTSUNNY   17  12  80 N16G23    29.58F WCI   2
TORRINGTON     CLOUDY    24  18  77 NW15      29.67F WCI  11

$$




USA.gov is the U.S. government's official web portal to all federal, state and local government web resources and services.